This is the latest recevied weather packets stored in our database for station/object OE3BCB-14. If no packets are shown the sender has not sent any weather packets the latest 10 day(s).
| Time | Temp. | Humidity | Pressure | Rain* | Wind** | Luminosity | Snow |
|---|---|---|---|---|---|---|---|
| 1777564192 | 23.89° C | 17% | 1029.4 hPa | - | - | 98 W/m² | - |
| 1777563890 | 25° C | 16% | 1029.3 hPa | - | - | 100 W/m² | - |
| 1777563587 | 26.11° C | 17% | 1029.3 hPa | - | - | 103 W/m² | - |
| 1777563285 | 25° C | 17% | 1029.3 hPa | - | - | 105 W/m² | - |
| 1777562983 | 25.56° C | 17% | 1029.4 hPa | - | - | 107 W/m² | - |
| 1777562680 | 24.44° C | 17% | 1029.4 hPa | - | - | 106 W/m² | - |
| 1777562378 | 24.44° C | 17% | 1029.5 hPa | - | - | 104 W/m² | - |
| 1777561168 | 26.67° C | 18% | 1029.7 hPa | - | - | 100 W/m² | - |
| 1777560866 | 25.56° C | 18% | 1029.8 hPa | - | - | 99 W/m² | - |
| 1777560563 | 26.11° C | 18% | 1029.9 hPa | - | - | 99 W/m² | - |
| 1777560261 | 25.56° C | 18% | 1029.9 hPa | - | - | 98 W/m² | - |
| 1777559958 | 25.56° C | 18% | 1030 hPa | - | - | 99 W/m² | - |
| 1777559354 | 28.33° C | 18% | 1030.1 hPa | - | - | 104 W/m² | - |
| 1777559051 | 26.67° C | 19% | 1030.1 hPa | - | - | 111 W/m² | - |
| 1777558749 | 27.78° C | 18% | 1030.1 hPa | - | - | 125 W/m² | - |
| 1777558446 | 26.11° C | 19% | 1030.2 hPa | - | - | 148 W/m² | - |
| 1777558144 | 25° C | 20% | 1030.2 hPa | - | - | 167 W/m² | - |
| 1777557842 | 24.44° C | 19% | 1030.3 hPa | - | - | 180 W/m² | - |
| 1777557539 | 24.44° C | 18% | 1030.3 hPa | - | - | 185 W/m² | - |
| 1777557237 | 27.22° C | 18% | 1030.3 hPa | - | - | 177 W/m² | - |
| 1777556934 | 25.56° C | 20% | 1030.3 hPa | - | - | 125 W/m² | - |
| 1777556632 | 25° C | 19% | 1030.4 hPa | - | - | 82 W/m² | - |
| 1777556329 | 25.56° C | 19% | 1030.5 hPa | - | - | 76 W/m² | - |
| 1777556027 | 24.44° C | 20% | 1030.6 hPa | - | - | 81 W/m² | - |
| 1777555725 | 23.89° C | 20% | 1030.6 hPa | - | - | 98 W/m² | - |
* Rain since midnight (hover to see other rain measurements)
** Current wind speed in m/s (hover to see current wind gust speed)